SCP
0 0 -0 -0 -0 -0 0 0 0 0 0 0 0 0 0 0 0 0 0 0 0 0 0 0 0 0 0 0 0 0 0 0 0 0 0 0 0 0 0 0 0 0 0
0 0 0 -0 -0 -0 0 0 0 0 0 0 0 0 0 0 0 0 0 0 0 0 0 0 0 0 0 0 0 0 0 0 0 0 0 0 0 0 0 0 0 0 0
0 0 0 0 -0 -0 0 0 0 0 0 0 0 0 0 0 0 0 0 0 0 0 0 0 0 0 0 0 0 0 0 0 0 0 0 0 0 0 0 0 0 0 0
0 0 0 0 -0 -0 0 0 0 -0 -0 -0 -0 0 0 0 0 0 0 0 0 0 0 0 0 0 0 0 0 0 0 0 0 0 0 0 0 0 0 0 0 0 0
0 0 0 0 -0 -0 0 0 0 -0 -0 -0 -0 0 0 0 0 0 0 0 0 0 0 0 0 0 0 0 0 0 0 0 0 0 0 0 0 0 0 0 0 0 0
0 0 0 0 0 0 0 0 -0 -0 -0 -0 -0 -0 0 0 0 0 0 0 0 0 0 0 0 0 0 0 0 0 0 0 0 0 0 0 0 0 0 0 0 0 0
-0 0 0 0 0 0 0 0 -0 -0 -0 -0 -0 -0 0 0 0 0 0 0 0 0 0 0 0 0 0 0 0 0 0 0 0 0 0 0 0 0 0 0 0 0 0
0 0 0 0 0 0 0 0 0 0 -0 -0 -0 0 0 0 0 0 0 0 0 0 0 0 0 0 0 0 0 0 0 0 0 0 0 0 0 0 0 0 0 0 0
0 0 0 0 0 0 0 0 0 0 0 0 0 0 0 0 0 0 0 0 0 0 0 0 0 0 0 0 0 0 0 0 0 0 0 0 0 0 0 0 0 0 0
0 0 0 0 0 0 0 0 0 0 0 0 0 0 0 0 0 0 0 0 0 0 0 0 0 0 0 0 0 0 0 0 0 0 0 0 0 0 0 0 0 0 0
0 0 0 0 0 0 0 0 0 0 0 0 0 0 0 0 0 0 0 0 0 0 0 0 0 0 0 0 0 0 0 0 0 0 0 0 0 0 0 0 0 0 0
0 0 0 0 0 0 0 0 0 0 0 0 0 0 0 0 0 0 0 0 0 0 0 0 0 0 0 0 0 0 0 0 0 0 0 0 0 0 0 0 0 0 0
0 0 0 0 0 0 0 0 0 0 0 0 0 0 0 0 0 0 0 0 0 0 0 0 0 0 0 0 0 0 0 0 0 0 0 0 0 0 0 0 0 0 0
0 0 0 0 0 0 0 0 0 0 0 0 0 0 0 0 0 0 0 0 0 0 0 0 0 0 0 0 0 0 0 0 0 0 0 0 0 0 0 0 0 0 0
0 0 0 0 0 0 0 0 0 0 0 0 0 0 0 0 0 0 0 0 0 0 0 0 0 0 0 0 0 0 0 0 0 0 0 0 0 0 0 0 0 0 0
0 0 0 0 0 0 0 0 0 0 0 0 0 0 0 0 0 0 0 0 0 0 0 0 0 0 0 0 0 0 0 0 0 0 0 0 0 0 0 0 0 0 0
0 0 0 0 0 0 0 0 0 0 0 0 0 0 0 0 0 0 0 0 0 0 0 0 0 0 0 0 0 0 0 0 0 0 0 0 0 0 0 0 0 0 0
0 0 0 0 0 0 0 0 0 0 0 0 0 0 0 0 0 0 0 0 0 0 0 0 0 0 0 0 0 0 0 0 0 0 0 0 0 0 0 0 0 0 0
0 0 0 0 0 0 0 0 0 0 0 0 0 0 0 0 0 0 0 0 0 0 0 0 0 0 0 0 0 0 0 0 0 0 0 0 0 0 0 0 0 0 0
0 0 0 0 0 0 0 0 0 0 0 0 0 0 0 0 0 0 0 0 0 0 0 0 0 0 0 0 0 0 0 0 0 0 0 0 0 0 0 0 0 0 0
0 0 0 0 0 0 0 0 0 0 0 0 0 0 0 0 0 0 0 0 0 0 0 0 0 0 0 0 0 0 0 0 0 0 0 0 0 0 0 0 0 0 0
0 0 0 0 0 0 0 0 0 0 0 0 0 0 0 0 0 0 0 0 0 0 0 0 0 0 0 0 0 0 0 0 0 0 0 0 0 0 0 0 0 0 0
0 0 0 0 0 0 0 0 0 0 0 0 0 0 0 0 0 0 0 0 0 0 0 0 0 0 0 0 0 0 0 0 0 0 0 0 0 0 0 0 0 0 0
0 0 0 0 0 0 0 0 0 0 0 -0 -0 0 0 0 0 0 0 0 0 0 0 0 0 0 0 0 0 0 0 0 0 0 0 0 0 0 0 0 0 0 0
0 0 0 0 0 0 0 0 0 0 -0 -0 -0 0 0 0 0 0 0 0 0 0 0 0 0 0 0 0 0 0 0 0 0 0 0 0 0 0 0 0 0 0 0
0 0 0 0 0 0 0 0 0 0 -0 -0 -0 0 0 0 0 0 0 0 0 0 0 0 0 0 0 0 0 0 0 0 0 0 0 0 0 0 0 0 0 0 0
Wind_Speed
3 3 4 4 4 3 3 3 2 2 2 2 1 1 1 1 1 2 3 3 3 3 3 2 3 3 2 2 3 3 3 2 2 2 2 2 2 2 1 2 2 2 2
4 4 4 4 4 4 4 3 2 2 2 1 1 1 1 1 1 1 2 2 2 3 2 2 2 3 2 3 3 3 2 2 2 2 3 2 3 2 2 1 1 2 2
5 5 4 4 3 3 3 3 2 2 2 2 1 1 1 1 1 1 0 1 2 2 2 2 2 2 2 3 3 3 3 2 1 2 3 3 3 3 2 2 2 2 2
4 4 4 4 4 3 3 3 3 3 2 2 1 1 1 0 0 0 0 0 1 1 1 1 2 2 2 2 3 3 3 3 2 2 2 3 3 4 3 2 2 3 3
4 4 4 4 3 3 3 3 3 3 2 2 2 1 1 0 0 0 0 0 0 0 1 1 1 2 2 2 2 3 2 2 3 2 2 3 3 4 4 5 4 3 3
3 3 2 2 2 3 3 3 4 3 3 2 2 2 1 1 0 1 1 1 1 0 1 1 1 2 2 2 3 3 3 3 3 3 3 3 3 3 4 6 6 6 4
2 3 3 2 3 3 3 3 4 3 3 3 2 2 2 1 2 2 1 1 1 1 2 2 2 2 2 3 3 3 3 3 3 3 3 3 3 4 4 5 6 6 5
2 2 2 2 3 3 3 3 3 3 3 3 3 3 2 2 1 2 2 2 2 2 2 3 2 2 3 3 3 3 3 3 3 4 4 3 3 4 4 4 5 6 5
2 2 2 2 2 3 3 3 3 3 3 4 4 4 3 3 3 3 3 3 3 2 3 3 3 3 3 3 3 3 3 4 4 4 4 4 3 3 4 4 4 5 6
1 1 1 1 1 2 2 2 2 3 3 3 4 3 4 4 4 4 4 4 4 3 4 4 4 4 4 4 4 4 4 4 4 4 4 4 4 3 4 4 4 5 6
1 1 1 1 1 1 1 1 2 2 3 3 4 4 4 4 4 5 5 5 4 4 5 5 5 5 5 5 4 5 5 5 5 5 5 6 5 4 4 4 4 5 5
1 0 1 1 1 1 1 2 2 3 3 3 4 4 5 5 5 5 5 5 5 5 6 6 6 6 6 5 6 6 6 6 6 6 6 6 4 6 5 4 5 5 5
1 1 1 1 1 2 2 2 3 3 3 3 4 5 5 5 6 6 6 6 6 6 6 6 7 6 6 6 6 7 7 7 7 7 7 7 6 7 5 6 5 5 5
2 2 1 1 2 2 3 3 3 3 3 4 5 5 6 6 6 6 6 6 6 7 7 7 7 7 7 7 7 7 8 8 7 7 7 7 7 7 7 6 6 6 6
3 3 2 2 2 3 3 3 4 3 4 5 5 6 6 6 6 6 6 6 6 7 7 7 7 7 7 7 7 7 8 8 8 8 8 8 8 9 8 6 6 6 6
4 4 3 3 3 4 4 4 4 4 4 5 6 6 6 6 6 6 6 6 7 7 7 8 8 8 7 8 10 9 8 8 9 9 8 8 8 9 11 11 10 9 8
4 4 4 4 4 4 5 5 5 4 5 6 6 6 6 6 7 6 7 7 7 7 8 8 8 9 9 9 12 12 9 9 9 9 8 7 6 8 8 9 10 11 12
5 5 4 5 5 5 5 5 5 5 5 6 6 6 6 7 7 7 7 8 7 7 8 8 9 9 9 10 12 12 11 10 10 9 9 9 8 7 8 7 8 8 8
4 4 4 5 5 5 4 5 5 5 6 6 6 6 6 7 7 7 8 7 7 7 8 8 8 9 9 10 11 11 8 8 10 9 9 9 9 9 9 8 8 8 7
3 4 4 4 5 5 4 5 6 6 6 6 6 6 6 7 8 8 8 7 7 8 7 8 8 9 10 9 11 11 7 8 8 7 8 10 11 10 10 9 8 9 8
4 4 4 4 5 4 4 6 6 7 6 6 7 7 7 7 8 7 7 7 7 7 8 9 8 9 10 10 11 12 8 7 7 7 7 6 10 12 12 11 9 10 8
5 4 4 5 5 4 5 6 7 7 6 6 7 7 7 6 6 7 7 6 7 7 8 8 8 7 7 9 10 12 13 10 8 8 7 6 9 11 12 10 10 10 8
5 4 5 5 5 5 5 7 7 6 6 7 7 7 7 7 6 6 7 6 6 6 6 6 7 6 6 6 11 12 13 13 9 7 9 10 10 10 9 10 10 8 6
5 5 5 6 6 5 5 7 7 6 7 7 7 7 7 7 6 6 5 6 6 6 7 7 7 7 6 6 5 6 7 9 8 7 8 10 10 8 8 7 6 6 5
5 5 5 6 7 7 6 6 6 6 7 7 7 7 7 7 7 6 6 7 7 7 8 7 7 7 8 7 8 7 6 6 6 6 5 5 5 5 5 5 5 5 5
5 5 6 7 7 7 7 6 6 6 7 7 7 6 5 6 6 6 7 9 11 12 14 15 13 10 12 12 12 12 12 12 10 7 6 6 6 6 6 5 5 5 5
Wind_Direction
159 152 152 150 149 137 126 119 111 115 117 110 108 126 113 110 97 74 58 48 40 33 31 18 6 356 346 338 334 330 316 322 319 287 279 260 255 261 285 308 315 324 321
166 161 161 160 163 148 141 137 124 106 103 99 80 54 92 125 93 72 61 45 40 28 17 14 5 359 344 337 342 338 319 322 333 305 288 269 230 207 277 280 305 313 317
190 177 173 170 165 160 156 143 133 123 114 106 115 125 140 149 142 128 82 34 33 34 12 3 354 350 344 342 336 328 313 301 302 310 294 289 288 308 239 263 282 298 304
203 192 186 179 176 170 158 156 153 145 130 135 153 151 152 101 44 350 3 27 29 28 19 348 339 336 328 327 329 319 304 292 283 290 294 296 304 286 283 254 263 286 294
196 196 196 191 178 164 159 161 155 147 149 159 155 159 144 101 76 330 354 328 60 22 5 327 324 321 309 310 310 312 303 294 291 288 284 276 277 274 279 284 289 283 281
187 186 179 171 161 156 159 163 163 164 169 178 176 177 183 185 202 266 300 302 303 297 315 301 304 306 301 300 301 298 293 289 289 286 281 277 274 276 274 279 290 293 292
176 168 165 164 160 163 167 173 177 181 186 190 197 197 201 222 248 265 275 284 286 285 292 282 284 288 287 288 290 287 283 279 278 277 276 277 276 282 280 280 285 288 289
154 158 168 173 172 171 173 176 186 196 198 202 210 216 211 218 244 255 261 262 265 267 276 271 272 276 278 278 277 276 277 277 272 271 272 272 274 273 268 273 283 287 279
148 152 161 177 180 178 182 186 197 209 211 216 217 222 222 226 236 244 250 255 257 263 264 265 270 272 270 271 273 270 273 275 274 273 270 268 268 269 268 266 267 277 287
142 152 162 172 182 189 191 197 215 231 233 230 229 231 233 234 239 242 242 244 250 250 254 257 261 264 264 263 262 265 266 267 271 274 272 271 270 266 264 262 260 259 270
170 167 165 171 175 184 200 214 231 245 247 245 242 239 239 237 239 241 247 250 252 251 252 253 253 254 255 255 254 257 260 262 266 266 267 269 272 270 267 264 263 260 261
240 220 167 168 178 203 225 242 251 255 259 258 254 250 248 244 243 246 248 248 249 248 248 250 249 250 252 252 252 255 255 257 260 262 263 266 267 266 267 264 263 264 263
221 207 190 206 224 240 254 261 265 268 270 267 261 257 254 252 252 253 251 247 246 247 245 245 247 248 248 249 251 254 255 256 259 261 261 263 263 262 263 264 265 265 267
225 218 230 245 263 267 271 273 274 274 274 269 266 266 264 262 261 259 255 251 249 249 248 248 248 249 248 248 249 252 255 256 257 258 257 258 257 261 263 263 264 266 266
234 235 248 266 281 288 287 287 285 281 275 271 269 270 273 270 265 262 259 256 253 252 253 253 251 249 248 246 247 251 254 257 258 256 254 255 256 261 261 262 263 262 261
243 250 262 275 284 293 297 293 289 286 279 273 273 277 275 271 265 263 263 259 258 257 255 253 253 252 249 244 246 253 257 256 257 259 257 255 250 251 253 256 259 259 259
250 257 268 277 283 288 290 289 292 293 282 277 280 281 277 272 268 266 263 260 260 259 258 257 256 257 255 248 250 249 256 257 257 258 258 256 252 251 255 254 253 252 253
256 264 272 280 285 285 285 288 288 286 283 282 283 283 279 276 274 269 265 264 263 261 260 259 258 259 258 250 251 252 253 256 257 256 256 256 256 249 253 259 259 259 255
265 271 276 281 282 281 283 282 280 281 281 283 285 285 280 276 273 270 269 269 266 263 261 261 259 259 260 248 250 250 255 255 256 256 254 253 255 250 246 252 257 261 261
273 280 284 283 280 284 285 277 278 280 282 288 291 290 281 275 274 273 273 270 265 265 267 263 260 260 262 256 249 247 251 256 259 258 254 247 249 252 245 247 251 255 258
280 282 280 279 284 292 284 278 280 281 289 293 290 287 281 276 275 275 271 269 266 267 265 264 262 259 260 260 253 248 248 251 257 258 257 252 246 250 251 252 253 254 260
277 277 276 281 287 286 279 279 280 286 291 288 286 286 285 281 275 272 270 266 264 265 265 265 266 260 257 256 255 251 248 251 254 257 260 260 253 254 256 255 252 254 253
273 272 272 282 285 277 271 277 285 292 288 284 284 286 286 280 271 267 268 267 263 263 267 266 268 268 263 258 254 255 253 250 253 258 261 265 261 258 256 252 250 246 243
273 273 271 276 283 283 275 275 285 286 280 280 283 286 285 282 276 268 262 262 262 263 264 266 268 271 268 264 259 254 254 250 252 259 259 257 254 251 252 253 245 241 240
275 269 265 271 280 287 284 282 282 279 276 278 279 281 279 280 279 272 265 262 261 260 266 269 268 269 270 264 259 262 259 255 254 263 262 255 252 250 248 246 245 241 236
274 270 268 272 279 285 286 287 282 274 275 279 281 280 281 281 279 280 278 253 252 262 259 260 263 265 264 271 266 261 260 260 255 254 249 247 245 245 246 244 243 240 239